Location: ????? ???????
(25.7275°N, 32.5929°E)
Time: 10:21:30
(UTC+00:00)

Cosmos 2237 - Pass Details

Date: 02 March 2021
Orbit: 845 x 857 km, 70.8° (Epoch: 15 April)

Event Time Altitude Azimuth Distance (km) Brightness Sun altitude
Rises 16:30:49 0° 199° (SSW) 3,399 7.7 -9.5°
Reaches altitude 10° 16:33:15 10° 200° (SSW) 2,468 6.9 -10.1°
Maximum altitude 16:38:56 83° 287° (WNW) 862 4.3 -11.4°
Drops below altitude 10° 16:44:40 10° 17° (NNE) 2,485 6.5 -12.7°
Sets 16:47:07 0° 18° (NNE) 3,425 7.2 -13.2°
